When you browse on this site, cookies collect data to enhance your experience and personalize the content and advertising you see.
Visit our Privacy Policy to learn more. By continuing to use the site, you agree to this use of cookies and data.
  • Em Portugal
  • Lista de países
  • Para 7 dias
  • Temperatura da água
  • Mapa do tempo
  • Widgets de tempo
  • user-avatar
    Iniciar Sessão

    Previsão horária em Rechytsa

    Hoje, 1 Junho, Segunda-feira

    Tempo Temperatura Precipitação Vento Pressão Humidade
    00:00 +8°C° 0 mm 4 m/s 746 mmHg 93%
    01:00 +7°C° 0 mm 4 m/s 747 mmHg 93%
    02:00 +8°C° 0 mm 3 m/s 747 mmHg 95%
    03:00 +7°C° 0 mm 4 m/s 747 mmHg 93%
    04:00 +8°C° 0 mm 5 m/s 747 mmHg 92%
    05:00 +8°C° 0 mm 5 m/s 746 mmHg 91%
    06:00 +8°C° 0 mm 6 m/s 747 mmHg 86%
    07:00 +9°C° 0 mm 6 m/s 747 mmHg 80%
    08:00 +10°C° 0 mm 5 m/s 747 mmHg 73%
    09:00 +10°C° 0.2 mm 5 m/s 747 mmHg 70%
    10:00 +12°C° 0.2 mm 5 m/s 747 mmHg 66%
    11:00 +11°C° 0.2 mm 6 m/s 747 mmHg 63%
    12:00 +13°C° 0.4 mm 6 m/s 747 mmHg 65%
    13:00 +13°C° 0.4 mm 6 m/s 747 mmHg 67%
    14:00 +11°C° 0 mm 6 m/s 747 mmHg 69%
    15:00 +10°C° 0.4 mm 6 m/s 746 mmHg 75%
    16:00 +9°C° 0.4 mm 6 m/s 746 mmHg 80%
    17:00 +8°C° 0.4 mm 6 m/s 746 mmHg 86%
    18:00 +8°C° 0.5 mm 5 m/s 746 mmHg 89%
    19:00 +7°C° 0.5 mm 5 m/s 745 mmHg 92%
    20:00 +7°C° 0.5 mm 4 m/s 745 mmHg 95%
    21:00 +7°C° 0.5 mm 4 m/s 744 mmHg 96%
    22:00 +7°C° 0.5 mm 4 m/s 744 mmHg 96%
    23:00 +8°C° 0.5 mm 3 m/s 743 mmHg 96%

    Amanhã, 2 Junho, Terça-feira

    Tempo Temperatura Precipitação Vento Pressão Humidade
    00:00 +8°C° 0.4 mm 3 m/s 743 mmHg 97%
    01:00 +8°C° 0.4 mm 2 m/s 742 mmHg 97%
    02:00 +8°C° 0.4 mm 2 m/s 742 mmHg 97%
    03:00 +9°C° 0.4 mm 1 m/s 741 mmHg 97%
    04:00 +9°C° 0.4 mm 1 m/s 741 mmHg 97%
    05:00 +9°C° 0.4 mm 1 m/s 740 mmHg 97%
    06:00 +10°C° 0.1 mm 1 m/s 740 mmHg 94%
    07:00 +10°C° 0.1 mm 2 m/s 741 mmHg 91%
    08:00 +10°C° 0.1 mm 2 m/s 741 mmHg 88%
    09:00 +12°C° 0.1 mm 3 m/s 741 mmHg 80%
    10:00 +13°C° 0.1 mm 3 m/s 741 mmHg 73%
    11:00 +14°C° 0.1 mm 3 m/s 741 mmHg 65%
    12:00 +14°C° 0.5 mm 4 m/s 741 mmHg 66%
    13:00 +14°C° 0.5 mm 4 m/s 741 mmHg 67%
    14:00 +14°C° 0.5 mm 5 m/s 741 mmHg 68%
    15:00 +14°C° 0.4 mm 5 m/s 741 mmHg 70%
    16:00 +14°C° 0.4 mm 5 m/s 741 mmHg 71%
    17:00 +13°C° 0.4 mm 5 m/s 741 mmHg 72%
    18:00 +12°C° 0.1 mm 4 m/s 742 mmHg 78%
    19:00 +11°C° 0.1 mm 3 m/s 742 mmHg 83%
    20:00 +9°C° 0.1 mm 3 m/s 742 mmHg 89%
    21:00 +9°C° 0 mm 3 m/s 742 mmHg 91%
    22:00 +8°C° 0 mm 3 m/s 742 mmHg 93%
    23:00 +7°C° 0 mm 3 m/s 742 mmHg 94%

    Depois de amanhã, 3 Junho, Quarta-feira

    Tempo Temperatura Precipitação Vento Pressão Humidade
    00:00 +7°C° 0 mm 3 m/s 743 mmHg 95%
    01:00 +7°C° 0 mm 3 m/s 743 mmHg 95%
    02:00 +7°C° 0 mm 3 m/s 743 mmHg 96%
    03:00 +7°C° 0 mm 3 m/s 743 mmHg 95%
    04:00 +7°C° 0 mm 3 m/s 743 mmHg 95%
    05:00 +7°C° 0 mm 3 m/s 742 mmHg 94%
    06:00 +8°C° 0 mm 4 m/s 742 mmHg 88%
    07:00 +10°C° 0 mm 5 m/s 743 mmHg 81%
    08:00 +13°C° 0 mm 6 m/s 743 mmHg 74%
    09:00 +13°C° 0.3 mm 6 m/s 743 mmHg 73%
    10:00 +14°C° 0.3 mm 6 m/s 742 mmHg 73%
    11:00 +15°C° 0.3 mm 6 m/s 742 mmHg 72%
    12:00 +15°C° 0.4 mm 6 m/s 742 mmHg 70%
    13:00 +15°C° 0.4 mm 6 m/s 742 mmHg 68%
    14:00 +16°C° 0.4 mm 6 m/s 742 mmHg 66%
    15:00 +16°C° 0.4 mm 5 m/s 742 mmHg 69%
    16:00 +15°C° 0.4 mm 5 m/s 741 mmHg 72%
    17:00 +15°C° 0.4 mm 5 m/s 741 mmHg 76%
    18:00 +14°C° 0.2 mm 4 m/s 741 mmHg 81%
    19:00 +13°C° 0.2 mm 3 m/s 741 mmHg 86%
    20:00 +11°C° 0.2 mm 3 m/s 741 mmHg 90%
    21:00 +11°C° 0 mm 3 m/s 741 mmHg 92%
    22:00 +10°C° 0 mm 2 m/s 741 mmHg 93%
    23:00 +9°C° 0 mm 2 m/s 741 mmHg 95%

    4 Junho, Quinta-feira

    Tempo Temperatura Precipitação Vento Pressão Humidade
    00:00 +9°C° 0 mm 2 m/s 741 mmHg 95%
    01:00 +8°C° 0 mm 2 m/s 741 mmHg 96%
    02:00 +8°C° 0 mm 2 m/s 741 mmHg 96%
    03:00 +8°C° 0 mm 2 m/s 741 mmHg 96%
    04:00 +8°C° 0 mm 2 m/s 741 mmHg 97%
    05:00 +8°C° 0 mm 2 m/s 741 mmHg 97%
    06:00 +10°C° 0 mm 2 m/s 741 mmHg 93%
    07:00 +11°C° 0 mm 3 m/s 741 mmHg 88%
    08:00 +13°C° 0 mm 3 m/s 741 mmHg 84%
    09:00 +14°C° 0.2 mm 3 m/s 741 mmHg 78%
    10:00 +15°C° 0.2 mm 4 m/s 741 mmHg 73%
    11:00 +17°C° 0.2 mm 4 m/s 741 mmHg 67%
    12:00 +18°C° 0.4 mm 4 m/s 741 mmHg 65%
    13:00 +17°C° 0.4 mm 5 m/s 741 mmHg 63%
    14:00 +19°C° 0.4 mm 5 m/s 740 mmHg 61%
    15:00 +19°C° 0.3 mm 5 m/s 740 mmHg 64%
    16:00 +18°C° 0.3 mm 4 m/s 740 mmHg 67%
    17:00 +18°C° 0.3 mm 4 m/s 740 mmHg 70%
    18:00 +17°C° 0.3 mm 4 m/s 740 mmHg 76%
    19:00 +14°C° 0.3 mm 3 m/s 740 mmHg 82%
    20:00 +13°C° 0.3 mm 3 m/s 740 mmHg 88%
    21:00 +12°C° 0.3 mm 3 m/s 740 mmHg 90%
    22:00 +11°C° 0.3 mm 3 m/s 741 mmHg 92%
    23:00 +11°C° 0.3 mm 3 m/s 741 mmHg 94%

    5 Junho, Sexta-feira

    Tempo Temperatura Precipitação Vento Pressão Humidade
    00:00 +10°C° 0.1 mm 3 m/s 741 mmHg 94%
    01:00 +10°C° 0.1 mm 3 m/s 741 mmHg 95%
    02:00 +10°C° 0.1 mm 3 m/s 741 mmHg 95%
    03:00 +10°C° 0.2 mm 3 m/s 741 mmHg 96%
    04:00 +10°C° 0.2 mm 3 m/s 741 mmHg 96%
    05:00 +10°C° 0.2 mm 3 m/s 741 mmHg 96%
    06:00 +12°C° 0.1 mm 3 m/s 741 mmHg 93%
    07:00 +13°C° 0.1 mm 3 m/s 741 mmHg 90%
    08:00 +16°C° 0.1 mm 3 m/s 741 mmHg 86%
    09:00 +17°C° 0 mm 3 m/s 741 mmHg 81%
    10:00 +19°C° 0 mm 3 m/s 741 mmHg 76%
    11:00 +20°C° 0 mm 3 m/s 741 mmHg 71%
    12:00 +21°C° 0.1 mm 3 m/s 741 mmHg 69%
    13:00 +22°C° 0.1 mm 3 m/s 742 mmHg 67%
    14:00 +22°C° 0.1 mm 3 m/s 742 mmHg 65%
    15:00 +22°C° 0.8 mm 3 m/s 742 mmHg 71%
    16:00 +21°C° 0.8 mm 3 m/s 742 mmHg 77%
    17:00 +21°C° 0.8 mm 3 m/s 742 mmHg 82%
    18:00 +19°C° 0.3 mm 2 m/s 742 mmHg 86%
    19:00 +18°C° 0.3 mm 2 m/s 742 mmHg 89%
    20:00 +17°C° 0.3 mm 2 m/s 742 mmHg 92%
    21:00 +16°C° 0 mm 2 m/s 742 mmHg 93%
    22:00 +16°C° 0 mm 2 m/s 742 mmHg 94%
    23:00 +15°C° 0 mm 1 m/s 742 mmHg 95%

    6 Junho, Sábado

    Tempo Temperatura Precipitação Vento Pressão Humidade
    00:00 +15°C° 0 mm 2 m/s 742 mmHg 95%
    01:00 +15°C° 0 mm 2 m/s 742 mmHg 95%
    02:00 +15°C° 0 mm 2 m/s 742 mmHg 96%
    03:00 +15°C° 0 mm 2 m/s 742 mmHg 95%
    04:00 +14°C° 0 mm 3 m/s 742 mmHg 95%
    05:00 +14°C° 0 mm 3 m/s 741 mmHg 95%
    06:00 +16°C° 0 mm 3 m/s 741 mmHg 93%
    07:00 +18°C° 0 mm 4 m/s 741 mmHg 91%
    08:00 +19°C° 0 mm 4 m/s 741 mmHg 88%
    09:00 +20°C° 0 mm 5 m/s 741 mmHg 85%
    10:00 +21°C° 0 mm 5 m/s 741 mmHg 82%
    11:00 +21°C° 0 mm 5 m/s 741 mmHg 79%
    12:00 +21°C° 0.1 mm 5 m/s 741 mmHg 80%
    13:00 +21°C° 0.1 mm 5 m/s 740 mmHg 81%
    14:00 +21°C° 0.1 mm 5 m/s 740 mmHg 81%
    15:00 +21°C° 0.3 mm 4 m/s 740 mmHg 80%
    16:00 +21°C° 0.3 mm 4 m/s 740 mmHg 80%
    17:00 +22°C° 0.3 mm 3 m/s 740 mmHg 79%
    18:00 +21°C° 0.7 mm 3 m/s 740 mmHg 84%
    19:00 +19°C° 0.7 mm 3 m/s 740 mmHg 89%
    20:00 +18°C° 0.7 mm 3 m/s 740 mmHg 93%
    21:00 +17°C° 0 mm 3 m/s 740 mmHg 95%
    22:00 +16°C° 0 mm 3 m/s 740 mmHg 96%
    23:00 +14°C° 0 mm 3 m/s 741 mmHg 97%
    Mostrar mais